This is the latest recevied weather packets stored in our database for station/object N2RDT. If no packets are shown the sender has not sent any weather packets the latest 10 day(s).
| Time | Temp. | Humidity | Pressure | Rain* | Wind** | Luminosity | Snow |
|---|---|---|---|---|---|---|---|
| 1777734773 | 11.11° C | 91% | 1014.1 hPa | 0.51 mm | - | 171 W/m² | - |
| 1777734471 | 11.11° C | 91% | 1014.3 hPa | 0.51 mm | - | 168 W/m² | - |
| 1777734167 | 11.11° C | 91% | 1014.3 hPa | 0.51 mm | - | 155 W/m² | - |
| 1777733863 | 11.11° C | 90% | 1014.4 hPa | 0.51 mm | - | 139 W/m² | - |
| 1777733560 | 11.11° C | 90% | 1014.3 hPa | 0.51 mm | - | 138 W/m² | - |
| 1777733257 | 11.11° C | 90% | 1014.3 hPa | 0.51 mm | - | 154 W/m² | - |
| 1777732954 | 11.11° C | 90% | 1014.4 hPa | 0.51 mm | - | 151 W/m² | - |
| 1777732649 | 11.11° C | 91% | 1014.2 hPa | 0.51 mm | - | 146 W/m² | - |
| 1777732347 | 11.11° C | 92% | 1014.1 hPa | 1.27 mm | - | 148 W/m² | - |
| 1777732045 | 11.11° C | 93% | 1013.9 hPa | 1.27 mm | - | 141 W/m² | - |
| 1777731741 | 11.11° C | 93% | 1013.9 hPa | 1.27 mm | - | 133 W/m² | - |
| 1777731438 | 11.11° C | 93% | 1013.9 hPa | 1.78 mm | - | 100 W/m² | - |
| 1777731137 | 11.11° C | 93% | 1013.7 hPa | 1.27 mm | - | 100 W/m² | - |
| 1777730835 | 11.11° C | 93% | 1013.7 hPa | 1.27 mm | - | 100 W/m² | - |
| 1777730532 | 11.11° C | 93% | 1013.4 hPa | 1.78 mm | - | 97 W/m² | - |
| 1777730227 | 11.11° C | 93% | 1013.5 hPa | 1.78 mm | - | 77 W/m² | - |
| 1777729925 | 11.11° C | 93% | 1013.4 hPa | 1.27 mm | - | 76 W/m² | - |
| 1777729620 | 11.11° C | 93% | 1013.3 hPa | 1.78 mm | - | 69 W/m² | - |
| 1777729317 | 11.11° C | 92% | 1013.2 hPa | 1.78 mm | - | 80 W/m² | - |
| 1777729014 | 11.11° C | 92% | 1013 hPa | 2.29 mm | - | 86 W/m² | - |
| 1777728711 | 11.11° C | 92% | 1013 hPa | 1.78 mm | - | 65 W/m² | - |
| 1777728407 | 11.11° C | 92% | 1013.1 hPa | 0.51 mm | - | 69 W/m² | - |
| 1777728104 | 11.11° C | 92% | 1013.2 hPa | 0.51 mm | - | 67 W/m² | - |
| 1777727802 | 11.11° C | 92% | 1013.3 hPa | 1.27 mm | - | 63 W/m² | - |
| 1777727498 | 11.11° C | 92% | 1013.4 hPa | 1.78 mm | - | 61 W/m² | - |
* Rain latest hour (hover to see other rain measurements)
** Current wind speed in m/s (hover to see current wind gust speed)